Location: Newark
(21.1200°N, 73.4000°E)
Time: 21:08:57
(UTC+00:00)

SR - Pass Details

Date: 05 February 2020
Orbit: 575 x 880 km, 66.7° (Epoch: 23 February)

Event Time Altitude Azimuth Distance (km) Brightness Sun altitude
Rises 23:47:07 0° 347° (NNW) 3,219 - -27.0°
Reaches altitude 10° 23:49:44 10° 354° (N) 2,239 - -26.4°
Exits shadow 23:51:35 21° 5° (N) 1,592 ? -25.9°
Maximum altitude 23:54:31 41° 64° (ENE) 991 ? -25.3°
Drops below altitude 10° 23:58:54 10° 135° (SE) 2,048 ? -24.3°
Sets 00:01:11 0° 143° (SE) 2,913 ? -23.7°
